Year,Month,Day,Hour,Minute,Value (Times are PST for temperature in C)
2008,05,21,00,00,10.90
2008,05,21,00,01,10.90
2008,05,21,00,02,10.90
2008,05,21,00,03,10.90
2008,05,21,00,04,10.90
2008,05,21,00,05,10.90
2008,05,21,00,06,10.90
2008,05,21,00,07,10.90
2008,05,21,00,08,10.90
2008,05,21,00,09,10.90
2008,05,21,00,10,10.90
2008,05,21,00,11,10.90
2008,05,21,00,12,10.90
2008,05,21,00,13,10.80
2008,05,21,00,14,10.80
2008,05,21,00,15,10.80
2008,05,21,00,16,10.80
2008,05,21,00,17,10.80
2008,05,21,00,18,10.80
2008,05,21,00,19,10.80
2008,05,21,00,20,10.80
2008,05,21,00,21,10.80
2008,05,21,00,22,10.80
2008,05,21,00,23,10.80
2008,05,21,00,24,10.80
2008,05,21,00,25,10.80
2008,05,21,00,26,10.80
2008,05,21,00,27,10.80
2008,05,21,00,28,10.80
2008,05,21,00,29,10.80
2008,05,21,00,30,10.90
2008,05,21,00,31,10.90
2008,05,21,00,32,10.80
2008,05,21,00,33,10.90
2008,05,21,00,34,10.90
2008,05,21,00,35,10.90
2008,05,21,00,36,10.90
2008,05,21,00,37,10.90
2008,05,21,00,38,10.90
2008,05,21,00,39,11.00
2008,05,21,00,40,11.00
2008,05,21,00,41,11.00
2008,05,21,00,42,11.00
2008,05,21,00,43,11.10
2008,05,21,00,44,11.10
2008,05,21,00,45,11.10
2008,05,21,00,46,11.10
2008,05,21,00,47,11.10
2008,05,21,00,48,11.10
2008,05,21,00,49,11.10
2008,05,21,00,50,11.20
2008,05,21,00,51,11.20
2008,05,21,00,52,11.20
2008,05,21,00,53,11.20
2008,05,21,00,54,11.20
2008,05,21,00,55,11.20
2008,05,21,00,56,11.20
2008,05,21,00,57,11.20
2008,05,21,00,58,11.10
2008,05,21,00,59,11.10
2008,05,21,01,00,11.10
2008,05,21,01,01,11.10
2008,05,21,01,02,11.10
2008,05,21,01,03,11.10
2008,05,21,01,04,11.10
2008,05,21,01,05,11.10
2008,05,21,01,06,11.20
2008,05,21,01,07,11.20
2008,05,21,01,08,11.20
2008,05,21,01,09,11.20
2008,05,21,01,10,11.20
2008,05,21,01,11,11.20
2008,05,21,01,12,11.20
2008,05,21,01,13,11.20
2008,05,21,01,14,11.20
2008,05,21,01,15,11.20
2008,05,21,01,16,11.20
2008,05,21,01,17,11.20
2008,05,21,01,18,11.20
2008,05,21,01,19,11.20
2008,05,21,01,20,11.20
2008,05,21,01,21,11.20
2008,05,21,01,22,11.20
2008,05,21,01,23,11.20
2008,05,21,01,24,11.20
2008,05,21,01,25,11.10
2008,05,21,01,26,11.10
2008,05,21,01,27,11.20
2008,05,21,01,28,11.10
2008,05,21,01,29,11.20
2008,05,21,01,30,11.10
2008,05,21,01,31,11.10
2008,05,21,01,32,11.10
2008,05,21,01,33,11.10
2008,05,21,01,34,11.10
2008,05,21,01,35,11.10
2008,05,21,01,36,11.10
2008,05,21,01,37,11.10
2008,05,21,01,38,11.10
2008,05,21,01,39,11.10
2008,05,21,01,40,11.10
2008,05,21,01,41,11.10
2008,05,21,01,42,11.10
2008,05,21,01,43,11.00
2008,05,21,01,44,11.00
2008,05,21,01,45,11.00
2008,05,21,01,46,11.00
2008,05,21,01,47,11.10
2008,05,21,01,48,11.10
2008,05,21,01,49,11.10
2008,05,21,01,50,11.10
2008,05,21,01,51,11.10
2008,05,21,01,52,11.10
2008,05,21,01,53,11.10
2008,05,21,01,54,11.10
2008,05,21,01,55,11.10
2008,05,21,01,56,11.00
2008,05,21,01,57,11.00
2008,05,21,01,58,11.00
2008,05,21,01,59,11.00
2008,05,21,02,00,10.90
2008,05,21,02,01,10.90
2008,05,21,02,02,10.90
2008,05,21,02,03,10.90
2008,05,21,02,04,10.90
2008,05,21,02,05,10.90
2008,05,21,02,06,10.90
2008,05,21,02,07,10.90
2008,05,21,02,08,10.90
2008,05,21,02,09,10.90
2008,05,21,02,10,10.90
2008,05,21,02,11,10.90
2008,05,21,02,12,10.90
2008,05,21,02,13,10.90
2008,05,21,02,14,10.90
2008,05,21,02,15,10.90
2008,05,21,02,16,10.90
2008,05,21,02,17,10.90
2008,05,21,02,18,10.90
2008,05,21,02,19,10.90
2008,05,21,02,20,10.80
2008,05,21,02,21,10.80
2008,05,21,02,22,10.80
2008,05,21,02,23,10.80
2008,05,21,02,24,10.80
2008,05,21,02,25,10.80
2008,05,21,02,26,10.80
2008,05,21,02,27,10.80
2008,05,21,02,28,10.80
2008,05,21,02,29,10.80
2008,05,21,02,30,10.80
2008,05,21,02,31,10.80
2008,05,21,02,32,10.80
2008,05,21,02,33,10.80
2008,05,21,02,34,10.80
2008,05,21,02,35,10.80
2008,05,21,02,36,10.80
2008,05,21,02,37,10.80
2008,05,21,02,38,10.80
2008,05,21,02,39,10.80
2008,05,21,02,40,10.80
2008,05,21,02,41,10.80
2008,05,21,02,42,10.80
2008,05,21,02,43,10.80
2008,05,21,02,44,10.80
2008,05,21,02,45,10.80
2008,05,21,02,46,10.80
2008,05,21,02,47,10.80
2008,05,21,02,48,10.80
2008,05,21,02,49,10.80
2008,05,21,02,50,10.80
2008,05,21,02,51,10.80
2008,05,21,02,52,10.80
2008,05,21,02,53,10.80
2008,05,21,02,54,10.80
2008,05,21,02,55,10.80
2008,05,21,02,56,10.80
2008,05,21,02,57,10.90
2008,05,21,02,58,10.90
2008,05,21,02,59,10.90
2008,05,21,03,00,10.90
2008,05,21,03,01,10.90
2008,05,21,03,02,10.90
2008,05,21,03,03,10.90
2008,05,21,03,04,10.90
2008,05,21,03,05,10.90
2008,05,21,03,06,10.90
2008,05,21,03,07,10.90
2008,05,21,03,08,10.90
2008,05,21,03,09,10.90
2008,05,21,03,10,10.90
2008,05,21,03,11,10.90
2008,05,21,03,12,10.80
2008,05,21,03,13,10.80
2008,05,21,03,14,10.80
2008,05,21,03,15,10.80
2008,05,21,03,16,10.80
2008,05,21,03,17,10.80
2008,05,21,03,18,10.80
2008,05,21,03,19,10.80
2008,05,21,03,20,10.90
2008,05,21,03,21,10.90
2008,05,21,03,22,10.90
2008,05,21,03,23,10.90
2008,05,21,03,24,10.90
2008,05,21,03,25,10.90
2008,05,21,03,26,10.90
2008,05,21,03,27,10.80
2008,05,21,03,28,10.80
2008,05,21,03,29,10.80
2008,05,21,03,30,10.80
2008,05,21,03,31,10.80
2008,05,21,03,32,10.80
2008,05,21,03,33,10.80
2008,05,21,03,34,10.80
2008,05,21,03,35,10.80
2008,05,21,03,36,10.70
2008,05,21,03,37,10.70
2008,05,21,03,38,10.70
2008,05,21,03,39,10.70
2008,05,21,03,40,10.70
2008,05,21,03,41,10.70
2008,05,21,03,42,10.70
2008,05,21,03,43,10.70
2008,05,21,03,44,10.60
2008,05,21,03,45,10.60
2008,05,21,03,46,10.60
2008,05,21,03,47,10.60
2008,05,21,03,48,10.60
2008,05,21,03,49,10.60
2008,05,21,03,50,10.60
2008,05,21,03,51,10.60
2008,05,21,03,52,10.60
2008,05,21,03,53,10.60
2008,05,21,03,54,10.60
2008,05,21,03,55,10.60
2008,05,21,03,56,10.60
2008,05,21,03,57,10.60
2008,05,21,03,58,10.60
2008,05,21,03,59,10.60
2008,05,21,04,00,10.50
2008,05,21,04,01,10.60
2008,05,21,04,02,10.60
2008,05,21,04,03,10.60
2008,05,21,04,04,10.60
2008,05,21,04,05,10.60
2008,05,21,04,06,10.60
2008,05,21,04,07,10.50
2008,05,21,04,08,10.50
2008,05,21,04,09,10.50
2008,05,21,04,10,10.50
2008,05,21,04,11,10.50
2008,05,21,04,12,10.60
2008,05,21,04,13,10.50
2008,05,21,04,14,10.50
2008,05,21,04,15,10.50
2008,05,21,04,16,10.50
2008,05,21,04,17,10.50
2008,05,21,04,18,10.50
2008,05,21,04,19,10.50
2008,05,21,04,20,10.50
2008,05,21,04,21,10.50
2008,05,21,04,22,10.50
2008,05,21,04,23,10.50
2008,05,21,04,24,10.50
2008,05,21,04,25,10.50
2008,05,21,04,26,10.50
2008,05,21,04,27,10.50
2008,05,21,04,28,10.50
2008,05,21,04,29,10.40
2008,05,21,04,30,10.40
2008,05,21,04,31,10.40
2008,05,21,04,32,10.40
2008,05,21,04,33,10.40
2008,05,21,04,34,10.40
2008,05,21,04,35,10.30
2008,05,21,04,36,10.30
2008,05,21,04,37,10.30
2008,05,21,04,38,10.30
2008,05,21,04,39,10.20
2008,05,21,04,40,10.20
2008,05,21,04,41,10.20
2008,05,21,04,42,10.20
2008,05,21,04,43,10.20
2008,05,21,04,44,10.20
2008,05,21,04,45,10.10
2008,05,21,04,46,10.10
2008,05,21,04,47,10.10
2008,05,21,04,48,10.10
2008,05,21,04,49,10.10
2008,05,21,04,50,10.10
2008,05,21,04,51,10.10
2008,05,21,04,52,10.10
2008,05,21,04,53,10.10
2008,05,21,04,54,10.10
2008,05,21,04,55,10.10
2008,05,21,04,56,10.10
2008,05,21,04,57,10.10
2008,05,21,04,58,10.10
2008,05,21,04,59,10.10
2008,05,21,05,00,10.10
2008,05,21,05,01,10.10
2008,05,21,05,02,10.00
2008,05,21,05,03,10.00
2008,05,21,05,04,10.00
2008,05,21,05,05,10.00
2008,05,21,05,06,10.00
2008,05,21,05,07,10.00
2008,05,21,05,08,10.00
2008,05,21,05,09,10.00
2008,05,21,05,10,10.10
2008,05,21,05,11,10.10
2008,05,21,05,12,10.10
2008,05,21,05,13,10.10
2008,05,21,05,14,10.10
2008,05,21,05,15,10.10
2008,05,21,05,16,10.10
2008,05,21,05,17,10.10
2008,05,21,05,18,10.10
2008,05,21,05,19,10.10
2008,05,21,05,20,10.10
2008,05,21,05,21,10.10
2008,05,21,05,22,10.10
2008,05,21,05,23,10.10
2008,05,21,05,24,10.10
2008,05,21,05,25,10.10
2008,05,21,05,26,10.10
2008,05,21,05,27,10.10
2008,05,21,05,28,10.10
2008,05,21,05,29,10.10
2008,05,21,05,30,10.10
2008,05,21,05,31,10.10
2008,05,21,05,32,10.10
2008,05,21,05,33,10.10
2008,05,21,05,34,10.10
2008,05,21,05,35,10.10
2008,05,21,05,36,10.10
2008,05,21,05,37,10.10
2008,05,21,05,38,10.10
2008,05,21,05,39,10.10
2008,05,21,05,40,10.10
2008,05,21,05,41,10.10
2008,05,21,05,42,10.10
2008,05,21,05,43,10.10
2008,05,21,05,44,10.10
2008,05,21,05,45,10.10
2008,05,21,05,46,10.10
2008,05,21,05,47,10.00
2008,05,21,05,48,10.00
2008,05,21,05,49,10.00
2008,05,21,05,50,10.00
2008,05,21,05,51,10.00
2008,05,21,05,52,10.00
2008,05,21,05,53,10.00
2008,05,21,05,54,10.00
2008,05,21,05,55,9.90
2008,05,21,05,56,9.90
2008,05,21,05,57,9.90
2008,05,21,05,58,9.90
2008,05,21,05,59,9.90
2008,05,21,06,00,9.90
2008,05,21,06,01,9.90
2008,05,21,06,02,9.90
2008,05,21,06,03,9.90
2008,05,21,06,04,9.90
2008,05,21,06,05,9.90
2008,05,21,06,06,9.90
2008,05,21,06,07,9.90
2008,05,21,06,08,9.90
2008,05,21,06,09,9.90
2008,05,21,06,10,9.90
2008,05,21,06,11,9.90
2008,05,21,06,12,9.90
2008,05,21,06,13,9.90
2008,05,21,06,14,9.90
2008,05,21,06,15,9.90
2008,05,21,06,16,9.90
2008,05,21,06,17,9.90
2008,05,21,06,18,9.90
2008,05,21,06,19,9.90
2008,05,21,06,20,9.90
2008,05,21,06,21,9.90
2008,05,21,06,22,9.90
2008,05,21,06,23,9.80
2008,05,21,06,24,9.80
2008,05,21,06,25,9.80
2008,05,21,06,26,9.80
2008,05,21,06,27,9.80
2008,05,21,06,28,9.80
2008,05,21,06,29,9.80
2008,05,21,06,30,9.80
2008,05,21,06,31,9.80
2008,05,21,06,32,9.80
2008,05,21,06,33,9.70
2008,05,21,06,34,9.70
2008,05,21,06,35,9.70
2008,05,21,06,36,9.70
2008,05,21,06,37,9.70
2008,05,21,06,38,9.70
2008,05,21,06,39,9.70
2008,05,21,06,40,9.70
2008,05,21,06,41,9.70
2008,05,21,06,42,9.70
2008,05,21,06,43,9.70
2008,05,21,06,44,9.70
2008,05,21,06,45,9.70
2008,05,21,06,46,9.70
2008,05,21,06,47,9.70
2008,05,21,06,48,9.70
2008,05,21,06,49,9.70
2008,05,21,06,50,9.80
2008,05,21,06,51,9.80
2008,05,21,06,52,9.80
2008,05,21,06,53,9.80
2008,05,21,06,54,9.80
2008,05,21,06,55,9.80
2008,05,21,06,56,9.80
2008,05,21,06,57,9.80
2008,05,21,06,58,9.80
2008,05,21,06,59,9.80
2008,05,21,07,00,9.80
2008,05,21,07,01,9.80
2008,05,21,07,02,9.80
2008,05,21,07,03,9.80
2008,05,21,07,04,9.80
2008,05,21,07,05,9.80
2008,05,21,07,06,9.80
2008,05,21,07,07,9.80
2008,05,21,07,08,9.80
2008,05,21,07,09,9.80
2008,05,21,07,10,9.80
2008,05,21,07,11,9.80
2008,05,21,07,12,9.80
2008,05,21,07,13,9.80
2008,05,21,07,14,9.80
2008,05,21,07,15,9.80
2008,05,21,07,16,9.90
2008,05,21,07,17,9.90
2008,05,21,07,18,9.90
2008,05,21,07,19,9.90
2008,05,21,07,20,9.90
2008,05,21,07,21,9.90
2008,05,21,07,22,9.90
2008,05,21,07,23,9.90
2008,05,21,07,24,9.90
2008,05,21,07,25,9.90
2008,05,21,07,26,10.00
2008,05,21,07,27,10.00
2008,05,21,07,28,10.10
2008,05,21,07,29,10.10
2008,05,21,07,30,10.10
2008,05,21,07,31,10.10
2008,05,21,07,32,10.10
2008,05,21,07,33,10.10
2008,05,21,07,34,10.10
2008,05,21,07,35,10.20
2008,05,21,07,36,10.20
2008,05,21,07,37,10.20
2008,05,21,07,38,10.20
2008,05,21,07,39,10.30
2008,05,21,07,40,10.30
2008,05,21,07,41,10.30
2008,05,21,07,42,10.30
2008,05,21,07,43,10.30
2008,05,21,07,44,10.30
2008,05,21,07,45,10.30
2008,05,21,07,46,10.30
2008,05,21,07,47,10.30
2008,05,21,07,48,10.40
2008,05,21,07,49,10.40
2008,05,21,07,50,10.40
2008,05,21,07,51,10.40
2008,05,21,07,52,10.50
2008,05,21,07,53,10.50
2008,05,21,07,54,10.60
2008,05,21,07,55,10.60
2008,05,21,07,56,10.60
2008,05,21,07,57,10.70
2008,05,21,07,58,10.70
2008,05,21,07,59,10.80
2008,05,21,08,00,10.80
2008,05,21,08,01,10.80
2008,05,21,08,02,10.90
2008,05,21,08,03,10.90
2008,05,21,08,04,11.00
2008,05,21,08,05,11.00
2008,05,21,08,06,11.10
2008,05,21,08,07,11.20
2008,05,21,08,08,11.20
2008,05,21,08,09,11.20
2008,05,21,08,10,11.30
2008,05,21,08,11,11.40
2008,05,21,08,12,11.50
2008,05,21,08,13,11.60
2008,05,21,08,14,11.60
2008,05,21,08,15,11.70
2008,05,21,08,16,11.70
2008,05,21,08,17,11.80
2008,05,21,08,18,11.80
2008,05,21,08,19,11.90
2008,05,21,08,20,11.90
2008,05,21,08,21,12.00
2008,05,21,08,22,12.00
2008,05,21,08,23,12.00
2008,05,21,08,24,12.10
2008,05,21,08,25,12.10
2008,05,21,08,26,12.10
2008,05,21,08,27,12.10
2008,05,21,08,28,12.10
2008,05,21,08,29,12.10
2008,05,21,08,30,12.10
2008,05,21,08,31,12.10
2008,05,21,08,32,12.10
2008,05,21,08,33,12.20
2008,05,21,08,34,12.20
2008,05,21,08,35,12.20
2008,05,21,08,36,12.20
2008,05,21,08,37,12.20
2008,05,21,08,38,12.30
2008,05,21,08,39,12.30
2008,05,21,08,40,12.30
2008,05,21,08,41,12.30
2008,05,21,08,42,12.30
2008,05,21,08,43,12.30
2008,05,21,08,44,12.30
2008,05,21,08,45,12.20
2008,05,21,08,46,12.20
2008,05,21,08,47,12.20
2008,05,21,08,48,12.20
2008,05,21,08,49,12.20
2008,05,21,08,50,12.20
2008,05,21,08,51,12.20
2008,05,21,08,52,12.30
2008,05,21,08,53,12.30
2008,05,21,08,54,12.30
2008,05,21,08,55,12.30
2008,05,21,08,56,12.30
2008,05,21,08,57,12.20
2008,05,21,08,58,12.20
2008,05,21,08,59,12.20
2008,05,21,09,00,12.20
2008,05,21,09,01,12.20
2008,05,21,09,02,12.20
2008,05,21,09,03,12.20
2008,05,21,09,04,12.20
2008,05,21,09,05,12.20
2008,05,21,09,06,12.20
2008,05,21,09,07,12.20
2008,05,21,09,08,12.20
2008,05,21,09,09,12.30
2008,05,21,09,10,12.30
2008,05,21,09,11,12.30
2008,05,21,09,12,12.30
2008,05,21,09,13,12.40
2008,05,21,09,14,12.40
2008,05,21,09,15,12.40
2008,05,21,09,16,12.40
2008,05,21,09,17,12.40
2008,05,21,09,18,12.40
2008,05,21,09,19,12.40
2008,05,21,09,20,12.50
2008,05,21,09,21,12.50
2008,05,21,09,22,12.60
2008,05,21,09,23,12.60
2008,05,21,09,24,12.60
2008,05,21,09,25,12.70
2008,05,21,09,26,12.70
2008,05,21,09,27,12.80
2008,05,21,09,28,12.80
2008,05,21,09,29,12.90
2008,05,21,09,30,13.00
2008,05,21,09,31,13.10
2008,05,21,09,32,13.20
2008,05,21,09,33,13.30
2008,05,21,09,34,13.50
2008,05,21,09,35,13.60
2008,05,21,09,36,13.60
2008,05,21,09,37,13.80
2008,05,21,09,38,13.80
2008,05,21,09,39,13.90
2008,05,21,09,40,13.90
2008,05,21,09,41,14.00
2008,05,21,09,42,14.20
2008,05,21,09,43,14.20
2008,05,21,09,44,14.10
2008,05,21,09,45,14.00
2008,05,21,09,46,13.90
2008,05,21,09,47,13.80
2008,05,21,09,48,13.80
2008,05,21,09,49,13.80
2008,05,21,09,50,13.80
2008,05,21,09,51,13.80
2008,05,21,09,52,13.80
2008,05,21,09,53,13.80
2008,05,21,09,54,13.80
2008,05,21,09,55,13.80
2008,05,21,09,56,13.70
2008,05,21,09,57,13.60
2008,05,21,09,58,13.50
2008,05,21,09,59,13.50
2008,05,21,10,00,13.50
2008,05,21,10,01,13.40
2008,05,21,10,02,13.40
2008,05,21,10,03,13.40
2008,05,21,10,04,13.40
2008,05,21,10,05,13.40
2008,05,21,10,06,13.30
2008,05,21,10,07,13.30
2008,05,21,10,08,13.30
2008,05,21,10,09,13.30
2008,05,21,10,10,13.30
2008,05,21,10,11,13.30
2008,05,21,10,12,13.30
2008,05,21,10,13,13.30
2008,05,21,10,14,13.30
2008,05,21,10,15,13.30
2008,05,21,10,16,13.40
2008,05,21,10,17,13.40
2008,05,21,10,18,13.50
2008,05,21,10,19,13.60
2008,05,21,10,20,13.80
2008,05,21,10,21,13.80
2008,05,21,10,22,13.80
2008,05,21,10,23,13.80
2008,05,21,10,24,13.80
2008,05,21,10,25,13.80
2008,05,21,10,26,13.90
2008,05,21,10,27,13.90
2008,05,21,10,28,14.00
2008,05,21,10,29,14.20
2008,05,21,10,30,14.30
2008,05,21,10,31,14.30
2008,05,21,10,32,14.30
2008,05,21,10,33,14.40
2008,05,21,10,34,14.40
2008,05,21,10,35,14.40
2008,05,21,10,36,14.40
2008,05,21,10,37,14.50
2008,05,21,10,38,14.60
2008,05,21,10,39,14.60
2008,05,21,10,40,14.50
2008,05,21,10,41,14.50
2008,05,21,10,42,14.50
2008,05,21,10,43,14.40
2008,05,21,10,44,14.30
2008,05,21,10,45,14.30
2008,05,21,10,46,14.30
2008,05,21,10,47,14.30
2008,05,21,10,48,14.30
2008,05,21,10,49,14.40
2008,05,21,10,50,14.40
2008,05,21,10,51,14.40
2008,05,21,10,52,14.50
2008,05,21,10,53,14.50
2008,05,21,10,54,14.60
2008,05,21,10,55,14.50
2008,05,21,10,56,14.40
2008,05,21,10,57,14.40
2008,05,21,10,58,14.30
2008,05,21,10,59,14.30
2008,05,21,11,00,14.30
2008,05,21,11,01,14.30
2008,05,21,11,02,14.30
2008,05,21,11,03,14.30
2008,05,21,11,04,14.20
2008,05,21,11,05,14.20
2008,05,21,11,06,14.20
2008,05,21,11,07,14.20
2008,05,21,11,08,14.10
2008,05,21,11,09,14.10
2008,05,21,11,10,14.10
2008,05,21,11,11,14.20
2008,05,21,11,12,14.10
2008,05,21,11,13,14.00
2008,05,21,11,14,13.80
2008,05,21,11,15,13.60
2008,05,21,11,16,13.40
2008,05,21,11,17,13.40
2008,05,21,11,18,13.30
2008,05,21,11,19,13.20
2008,05,21,11,20,13.10
2008,05,21,11,21,13.00
2008,05,21,11,22,13.00
2008,05,21,11,23,13.00
2008,05,21,11,24,13.00
2008,05,21,11,25,13.00
2008,05,21,11,26,13.00
2008,05,21,11,27,13.00
2008,05,21,11,28,13.00
2008,05,21,11,29,13.10
2008,05,21,11,30,13.20
2008,05,21,11,31,13.20
2008,05,21,11,32,13.30
2008,05,21,11,33,13.30
2008,05,21,11,34,13.30
2008,05,21,11,35,13.40
2008,05,21,11,36,13.50
2008,05,21,11,37,13.50
2008,05,21,11,38,13.50
2008,05,21,11,39,13.50
2008,05,21,11,40,13.60
2008,05,21,11,41,13.70
2008,05,21,11,42,13.70
2008,05,21,11,43,13.80
2008,05,21,11,44,13.90
2008,05,21,11,45,14.00
2008,05,21,11,46,14.00
2008,05,21,11,47,14.00
2008,05,21,11,48,14.00
2008,05,21,11,49,14.10
2008,05,21,11,50,14.20
2008,05,21,11,51,14.30
2008,05,21,11,52,14.40
2008,05,21,11,53,14.50
2008,05,21,11,54,14.40
2008,05,21,11,55,14.40
2008,05,21,11,56,14.50
2008,05,21,11,57,14.50
2008,05,21,11,58,14.50
2008,05,21,11,59,14.50
2008,05,21,12,00,14.50
2008,05,21,12,01,14.40
2008,05,21,12,02,14.40
2008,05,21,12,03,14.40
2008,05,21,12,04,14.50
2008,05,21,12,05,14.60
2008,05,21,12,06,14.70
2008,05,21,12,07,14.80
2008,05,21,12,08,15.00
2008,05,21,12,09,15.00
2008,05,21,12,10,15.20
2008,05,21,12,11,15.30
2008,05,21,12,12,15.30
2008,05,21,12,13,15.30
2008,05,21,12,14,15.20
2008,05,21,12,15,15.10
2008,05,21,12,16,15.00
2008,05,21,12,17,14.70
2008,05,21,12,18,14.50
2008,05,21,12,19,14.20
2008,05,21,12,20,14.10
2008,05,21,12,21,14.00
2008,05,21,12,22,13.90
2008,05,21,12,23,13.80
2008,05,21,12,24,13.70
2008,05,21,12,25,13.70
2008,05,21,12,26,13.70
2008,05,21,12,27,13.70
2008,05,21,12,28,13.70
2008,05,21,12,29,13.70
2008,05,21,12,30,13.80
2008,05,21,12,31,13.80
2008,05,21,12,32,13.90
2008,05,21,12,33,14.00
2008,05,21,12,34,14.00
2008,05,21,12,35,14.10
2008,05,21,12,36,14.10
2008,05,21,12,37,14.20
2008,05,21,12,38,14.20
2008,05,21,12,39,14.30
2008,05,21,12,40,14.30
2008,05,21,12,41,14.30
2008,05,21,12,42,14.30
2008,05,21,12,43,14.20
2008,05,21,12,44,14.20
2008,05,21,12,45,14.20
2008,05,21,12,46,14.20
2008,05,21,12,47,14.30
2008,05,21,12,48,14.40
2008,05,21,12,49,14.20
2008,05,21,12,50,14.20
2008,05,21,12,51,14.20
2008,05,21,12,52,14.30
2008,05,21,12,53,14.30
2008,05,21,12,54,14.20
2008,05,21,12,55,14.20
2008,05,21,12,56,14.20
2008,05,21,12,57,14.20
2008,05,21,12,58,14.20
2008,05,21,12,59,14.20
2008,05,21,13,00,14.30
2008,05,21,13,01,14.30
2008,05,21,13,02,14.30
2008,05,21,13,03,14.30
2008,05,21,13,04,14.30
2008,05,21,13,05,14.30
2008,05,21,13,06,14.30
2008,05,21,13,07,14.30
2008,05,21,13,08,14.20
2008,05,21,13,09,14.10
2008,05,21,13,10,14.20
2008,05,21,13,11,14.10
2008,05,21,13,12,14.10
2008,05,21,13,13,14.00
2008,05,21,13,14,14.10
2008,05,21,13,15,14.20
2008,05,21,13,16,14.30
2008,05,21,13,17,14.30
2008,05,21,13,18,14.30
2008,05,21,13,19,14.40
2008,05,21,13,20,14.30
2008,05,21,13,21,14.20
2008,05,21,13,22,14.10
2008,05,21,13,23,14.00
2008,05,21,13,24,13.90
2008,05,21,13,25,13.90
2008,05,21,13,26,13.80
2008,05,21,13,27,13.80
2008,05,21,13,28,13.80
2008,05,21,13,29,13.70
2008,05,21,13,30,13.60
2008,05,21,13,31,13.50
2008,05,21,13,32,13.50
2008,05,21,13,33,13.50
2008,05,21,13,34,13.50
2008,05,21,13,35,13.40
2008,05,21,13,36,13.50
2008,05,21,13,37,13.50
2008,05,21,13,38,13.60
2008,05,21,13,39,13.60
2008,05,21,13,40,13.70
2008,05,21,13,41,13.70
2008,05,21,13,42,13.70
2008,05,21,13,43,13.70
2008,05,21,13,44,13.80
2008,05,21,13,45,13.80
2008,05,21,13,46,13.80
2008,05,21,13,47,13.80
2008,05,21,13,48,13.80
2008,05,21,13,49,13.80
2008,05,21,13,50,13.80
2008,05,21,13,51,13.80
2008,05,21,13,52,13.80
2008,05,21,13,53,13.90
2008,05,21,13,54,13.90
2008,05,21,13,55,13.90
2008,05,21,13,56,13.90
2008,05,21,13,57,13.90
2008,05,21,13,58,13.90
2008,05,21,13,59,13.80
2008,05,21,14,00,13.80
2008,05,21,14,01,13.80
2008,05,21,14,02,13.80
2008,05,21,14,03,13.80
2008,05,21,14,04,13.90
2008,05,21,14,05,14.00
2008,05,21,14,06,14.10
2008,05,21,14,07,14.30
2008,05,21,14,08,14.40
2008,05,21,14,09,14.60
2008,05,21,14,10,14.70
2008,05,21,14,11,14.90
2008,05,21,14,12,15.00
2008,05,21,14,13,15.10
2008,05,21,14,14,15.30
2008,05,21,14,15,15.40
2008,05,21,14,16,15.40
2008,05,21,14,17,15.50
2008,05,21,14,18,15.60
2008,05,21,14,19,15.70
2008,05,21,14,20,15.80
2008,05,21,14,21,15.80
2008,05,21,14,22,15.80
2008,05,21,14,23,15.80
2008,05,21,14,24,15.60
2008,05,21,14,25,15.50
2008,05,21,14,26,15.50
2008,05,21,14,27,15.50
2008,05,21,14,28,15.50
2008,05,21,14,29,15.50
2008,05,21,14,30,15.50
2008,05,21,14,31,15.50
2008,05,21,14,32,15.50
2008,05,21,14,33,15.40
2008,05,21,14,34,15.40
2008,05,21,14,35,15.30
2008,05,21,14,36,15.20
2008,05,21,14,37,15.20
2008,05,21,14,38,15.00
2008,05,21,14,39,15.00
2008,05,21,14,40,15.00
2008,05,21,14,41,14.90
2008,05,21,14,42,14.80
2008,05,21,14,43,14.70
2008,05,21,14,44,14.60
2008,05,21,14,45,14.60
2008,05,21,14,46,14.40
2008,05,21,14,47,14.30
2008,05,21,14,48,14.30
2008,05,21,14,49,14.20
2008,05,21,14,50,14.20
2008,05,21,14,51,14.10
2008,05,21,14,52,13.90
2008,05,21,14,53,13.80
2008,05,21,14,54,13.70
2008,05,21,14,55,13.60
2008,05,21,14,56,13.50
2008,05,21,14,57,13.50
2008,05,21,14,58,13.40
2008,05,21,14,59,13.50
2008,05,21,15,00,13.50
2008,05,21,15,01,13.60
2008,05,21,15,02,13.60
2008,05,21,15,03,13.70
2008,05,21,15,04,13.70
2008,05,21,15,05,13.60
2008,05,21,15,06,13.60
2008,05,21,15,07,13.50
2008,05,21,15,08,13.50
2008,05,21,15,09,13.50
2008,05,21,15,10,13.40
2008,05,21,15,11,13.40
2008,05,21,15,12,13.40
2008,05,21,15,13,13.40
2008,05,21,15,14,13.40
2008,05,21,15,15,13.30
2008,05,21,15,16,13.30
2008,05,21,15,17,13.30
2008,05,21,15,18,13.40
2008,05,21,15,19,13.50
2008,05,21,15,20,13.60
2008,05,21,15,21,13.70
2008,05,21,15,22,13.70
2008,05,21,15,23,13.90
2008,05,21,15,24,14.00
2008,05,21,15,25,14.10
2008,05,21,15,26,14.10
2008,05,21,15,27,14.20
2008,05,21,15,28,14.20
2008,05,21,15,29,14.20
2008,05,21,15,30,14.20
2008,05,21,15,31,14.20
2008,05,21,15,32,14.20
2008,05,21,15,33,14.20
2008,05,21,15,34,14.10
2008,05,21,15,35,14.10
2008,05,21,15,36,14.00
2008,05,21,15,37,14.00
2008,05,21,15,38,14.00
2008,05,21,15,39,14.10
2008,05,21,15,40,14.10
2008,05,21,15,41,14.00
2008,05,21,15,42,14.00
2008,05,21,15,43,14.00
2008,05,21,15,44,13.90
2008,05,21,15,45,13.90
2008,05,21,15,46,14.00
2008,05,21,15,47,14.10
2008,05,21,15,48,14.20
2008,05,21,15,49,14.20
2008,05,21,15,50,14.20
2008,05,21,15,51,14.20
2008,05,21,15,52,14.30
2008,05,21,15,53,14.30
2008,05,21,15,54,14.40
2008,05,21,15,55,14.40
2008,05,21,15,56,14.30
2008,05,21,15,57,14.30
2008,05,21,15,58,14.30
2008,05,21,15,59,14.20
2008,05,21,16,00,14.20
2008,05,21,16,01,14.20
2008,05,21,16,02,14.20
2008,05,21,16,03,14.20
2008,05,21,16,04,14.20
2008,05,21,16,05,14.20
2008,05,21,16,06,14.20
2008,05,21,16,07,14.20
2008,05,21,16,08,14.20
2008,05,21,16,09,14.20
2008,05,21,16,10,14.20
2008,05,21,16,11,14.20
2008,05,21,16,12,14.20
2008,05,21,16,13,14.20
2008,05,21,16,14,14.20
2008,05,21,16,15,14.20
2008,05,21,16,16,14.10
2008,05,21,16,17,14.20
2008,05,21,16,18,14.20
2008,05,21,16,19,14.20
2008,05,21,16,20,14.20
2008,05,21,16,21,14.20
2008,05,21,16,22,14.10
2008,05,21,16,23,14.10
2008,05,21,16,24,14.00
2008,05,21,16,25,14.00
2008,05,21,16,26,13.90
2008,05,21,16,27,13.90
2008,05,21,16,28,13.80
2008,05,21,16,29,13.90
2008,05,21,16,30,13.90
2008,05,21,16,31,13.80
2008,05,21,16,32,13.90
2008,05,21,16,33,13.90
2008,05,21,16,34,13.90
2008,05,21,16,35,13.90
2008,05,21,16,36,13.90
2008,05,21,16,37,13.90
2008,05,21,16,38,14.00
2008,05,21,16,39,14.00
2008,05,21,16,40,13.90
2008,05,21,16,41,13.80
2008,05,21,16,42,13.70
2008,05,21,16,43,13.60
2008,05,21,16,44,13.60
2008,05,21,16,45,13.70
2008,05,21,16,46,13.70
2008,05,21,16,47,13.80
2008,05,21,16,48,13.80
2008,05,21,16,49,13.80
2008,05,21,16,50,13.80
2008,05,21,16,51,13.80
2008,05,21,16,52,13.80
2008,05,21,16,53,13.80
2008,05,21,16,54,13.70
2008,05,21,16,55,13.60
2008,05,21,16,56,13.60
2008,05,21,16,57,13.60
2008,05,21,16,58,13.60
2008,05,21,16,59,13.70
2008,05,21,17,00,13.70
2008,05,21,17,01,13.70
2008,05,21,17,02,13.70
2008,05,21,17,03,13.70
2008,05,21,17,04,13.70
2008,05,21,17,05,13.70
2008,05,21,17,06,13.60
2008,05,21,17,07,13.70
2008,05,21,17,08,13.60
2008,05,21,17,09,13.60
2008,05,21,17,10,13.70
2008,05,21,17,11,13.70
2008,05,21,17,12,13.70
2008,05,21,17,13,13.60
2008,05,21,17,14,13.50
2008,05,21,17,15,13.50
2008,05,21,17,16,13.40
2008,05,21,17,17,13.40
2008,05,21,17,18,13.40
2008,05,21,17,19,13.30
2008,05,21,17,20,13.30
2008,05,21,17,21,13.30
2008,05,21,17,22,13.30
2008,05,21,17,23,13.20